Location: Possagno
(45.8500°N, 11.8667°E)
Time: 04:22:53
(UTC+00:00)

Cosmos-2242 - Pass Details

Date: 07 June 2020
Orbit: 590 x 618 km, 82.5° (Epoch: 07 July)

Event Time Altitude Azimuth Distance (km) Brightness Sun altitude
Rises 00:27:08 0° 346° (NNW) 2,837 7.4 -19.3°
Reaches altitude 10° 00:29:23 10° 341° (NNW) 1,931 6.3 -19.1°
Maximum altitude 00:33:30 49° 266° (W) 768 3.3 -18.9°
Enters shadow 00:34:23 41° 227° (SW) 860 3.3 -18.8°
